Weather History for Point Pleasant, WV

Change the Weather History Date:

Friday, August 16, 2013

  Actual Average (KHTS) Record (KHTS)
Temperature  
Mean Temperature 68 °F 75 °F  
Max Temperature 82 °F 86 °F 103 °F (2007)
Min Temperature 53 °F 65 °F 49 °F (1979)
Degree Days  
Heating Degree Days 0 0  
Month to date heating degree days 0  
Since 1 June heating degree days 12  
Since 1 July heating degree days 0  
Cooling Degree Days 2 10  
Month to date cooling degree days 169  
Year to date cooling degree days 839  
Since 1 June cooling degree days 726  
Growing Degree Days 18 (Base 50)    
Moisture  
Dew Point 57 °F    
Average Humidity 74    
Maximum Humidity 100    
Minimum Humidity 34    
Precipitation  
Precipitation 0.00 in 0.12 in 5.00 in (1905)
Month to date precipitation 2.00  
Year to date precipitation 28.51  
Snow  
Snow 0.00 in - - ()
Month to date snowfall  
Since 1 September snowfall  
Snow Depth -    
Sea Level Pressure  
Sea Level Pressure 30.14 in    
Wind  
Wind Speed 0 mph (ENE)    
Max Wind Speed 6 mph    
Max Gust Speed -    
Visibility 10 miles    
Events      
T = Trace of Precipitation, MM = Missing Value Source: NWS Daily Summary

Daily Weather History Graph

Daily Weather History Graph

Search for Another Location

Airport:

Trip Planner

Search our weather history database for the weather conditions in past years. The results will help you decide how hot, cold, wet, or windy it might be!

Date:

Astronomy

Aug. 16, 2013 Rise Set
Actual Time 6:43 AM EDT 8:21 PM EDT
Civil Twilight 6:14 AM EDT 8:49 PM EDT
Nautical Twilight 5:40 AM EDT 9:23 PM EDT
Astronomical Twilight 5:03 AM EDT 10:00 PM EDT
Moon 4:38 PM EDT (8/16) 1:45 AM EDT (8/16)
Length of Visible Light 14h 35m
Length of Day
13h 38m
Waxing Gibbous, 74% of the Moon is Illuminated
Aug 16
Waxing Gibbous
Aug 20
Full
Aug 28
Last Quarter
Sep 5
New
Sep 12
First Quarter

Hourly Weather History & Observations

Time (EDT) Temp. Heat Index Dew Point Humidity Pressure Visibility Wind Dir Wind Speed Gust Speed Precip Events Conditions
12:15 AM 55.4 °F - 55.4 °F 100% 30.14 in 10.0 mi Calm Calm - N/A   Clear
12:35 AM 55.4 °F - 53.6 °F 94% 30.14 in 10.0 mi Calm Calm - N/A   Clear
12:55 AM 55.4 °F - 53.6 °F 94% 30.13 in 10.0 mi Calm Calm - N/A   Clear
1:15 AM 55.4 °F - 53.6 °F 94% 30.13 in 10.0 mi Calm Calm - N/A   Clear
1:55 AM 55.4 °F - 53.6 °F 94% 30.12 in 10.0 mi Calm Calm - N/A   Clear
2:15 AM 55.4 °F - 53.6 °F 94% 30.12 in 10.0 mi Calm Calm - N/A   Scattered Clouds
2:35 AM 55.4 °F - 53.6 °F 94% 30.12 in 10.0 mi Calm Calm - N/A   Scattered Clouds
2:55 AM 55.4 °F - 53.6 °F 94% 30.12 in 10.0 mi Calm Calm - N/A   Scattered Clouds
3:15 AM 55.4 °F - 53.6 °F 94% 30.11 in 10.0 mi Calm Calm - N/A   Clear
3:35 AM 53.6 °F - 53.6 °F 100% 30.11 in 10.0 mi Calm Calm - N/A   Clear
3:55 AM 53.6 °F - 53.6 °F 100% 30.12 in 10.0 mi Calm Calm - N/A   Clear
4:15 AM 53.6 °F - 51.8 °F 94% 30.12 in 10.0 mi Calm Calm - N/A   Clear
4:35 AM 53.6 °F - 51.8 °F 94% 30.12 in 10.0 mi Calm Calm - N/A   Clear
4:55 AM 53.6 °F - 53.6 °F 100% 30.12 in 10.0 mi Calm Calm - N/A   Clear
5:15 AM 53.6 °F - 53.6 °F 100% 30.12 in 10.0 mi Calm Calm - N/A   Clear
5:35 AM 53.6 °F - 53.6 °F 100% 30.13 in 7.0 mi Calm Calm - N/A   Clear
5:55 AM 53.6 °F - 53.6 °F 100% 30.12 in 10.0 mi Calm Calm - N/A   Clear
6:15 AM 53.6 °F - 51.8 °F 94% 30.12 in 10.0 mi Calm Calm - N/A   Clear
6:35 AM 53.6 °F - 51.8 °F 94% 30.13 in 7.0 mi Calm Calm - N/A   Clear
6:55 AM 53.6 °F - 51.8 °F 94% 30.14 in 10.0 mi Calm Calm - N/A   Clear
7:15 AM 53.6 °F - 51.8 °F 94% 30.14 in 10.0 mi Calm Calm - N/A   Clear
7:35 AM 53.6 °F - 53.6 °F 100% 30.15 in 10.0 mi Calm Calm - N/A   Clear
7:55 AM 55.4 °F - 53.6 °F 94% 30.15 in 10.0 mi Calm Calm - N/A   Clear
8:15 AM 59.0 °F - 55.4 °F 88% 30.14 in 10.0 mi Calm Calm - N/A   Clear
8:35 AM 60.8 °F - 57.2 °F 88% 30.15 in 10.0 mi Calm Calm - N/A   Clear
8:55 AM 62.6 °F - 57.2 °F 82% 30.16 in 10.0 mi Calm Calm - N/A   Clear
9:15 AM 64.4 °F - 57.2 °F 77% 30.16 in 10.0 mi Calm Calm - N/A   Clear
9:35 AM 66.2 °F - 59.0 °F 78% 30.16 in 10.0 mi Calm Calm - N/A   Clear
9:55 AM 68.0 °F - 59.0 °F 73% 30.16 in 10.0 mi Calm Calm - N/A   Clear
10:15 AM 69.8 °F - 59.0 °F 68% 30.16 in 10.0 mi Calm Calm - N/A   Clear
10:35 AM 71.6 °F - 59.0 °F 64% 30.16 in 10.0 mi East 3.5 mph - N/A   Clear
10:55 AM 71.6 °F - 59.0 °F 64% 30.16 in 10.0 mi Calm Calm - N/A   Clear
11:15 AM 73.4 °F - 60.8 °F 65% 30.17 in 10.0 mi NNE 3.5 mph - N/A   Clear
11:35 AM 73.4 °F - 60.8 °F 65% 30.17 in 10.0 mi Calm Calm - N/A   Clear
11:55 AM 77.0 °F - 60.8 °F 57% 30.17 in 10.0 mi Calm Calm - N/A   Scattered Clouds
12:15 PM 78.8 °F - 60.8 °F 54% 30.16 in 10.0 mi Calm Calm - N/A   Scattered Clouds
12:35 PM 78.8 °F - 60.8 °F 54% 30.16 in 10.0 mi Calm Calm - N/A   Mostly Cloudy
12:55 PM 77.0 °F - 60.8 °F 57% 30.16 in 10.0 mi SSE 3.5 mph - N/A   Scattered Clouds
1:15 PM 78.8 °F - 59.0 °F 51% 30.15 in 10.0 mi NE 3.5 mph - N/A   Scattered Clouds
1:35 PM 82.4 °F 82.9 °F 60.8 °F 48% 30.15 in 10.0 mi Calm Calm - N/A   Scattered Clouds
1:55 PM 78.8 °F - 59.0 °F 51% 30.15 in 10.0 mi Calm Calm - N/A   Scattered Clouds
2:15 PM 82.4 °F 82.5 °F 59.0 °F 45% 30.14 in 10.0 mi Calm Calm - N/A   Clear
2:35 PM 80.6 °F 80.3 °F 53.6 °F 39% 30.14 in 10.0 mi Calm Calm - N/A   Clear
2:55 PM 82.4 °F 81.7 °F 55.4 °F 39% 30.13 in 10.0 mi ENE 5.8 mph - N/A   Clear
3:15 PM 80.6 °F - 51.8 °F 37% 30.13 in 10.0 mi Calm Calm - N/A   Clear
3:35 PM 82.4 °F 81.4 °F 53.6 °F 37% 30.12 in 10.0 mi Calm Calm - N/A   Clear
3:55 PM 82.4 °F - 51.8 °F 35% 30.12 in 10.0 mi East 4.6 mph - N/A   Clear
4:15 PM 80.6 °F - 51.8 °F 37% 30.12 in 10.0 mi Calm Calm - N/A   Clear
4:35 PM 80.6 °F 80.3 °F 53.6 °F 39% 30.12 in 10.0 mi ENE 3.5 mph - N/A   Clear
4:55 PM 82.4 °F 81.4 °F 53.6 °F 37% 30.12 in 10.0 mi Calm Calm - N/A   Clear
5:15 PM 80.6 °F 80.3 °F 53.6 °F 39% 30.12 in 10.0 mi East 3.5 mph - N/A   Clear
5:35 PM 80.6 °F 80.3 °F 53.6 °F 39% 30.12 in 10.0 mi NE 5.8 mph - N/A   Clear
5:55 PM 80.6 °F - 50.0 °F 34% 30.12 in 10.0 mi Calm Calm - N/A   Clear
6:15 PM 80.6 °F 80.3 °F 53.6 °F 39% 30.12 in 10.0 mi Calm Calm - N/A   Clear
6:35 PM 78.8 °F - 59.0 °F 51% 30.12 in 10.0 mi Calm Calm - N/A   Clear
6:55 PM 77.0 °F - 60.8 °F 57% 30.12 in 10.0 mi Calm Calm - N/A   Clear
7:15 PM 75.2 °F - 60.8 °F 61% 30.12 in 10.0 mi Calm Calm - N/A   Clear
7:35 PM 71.6 °F - 62.6 °F 73% 30.13 in 10.0 mi Calm Calm - N/A   Clear
7:55 PM 69.8 °F - 62.6 °F 78% 30.13 in 10.0 mi Calm Calm - N/A   Clear
8:15 PM 68.0 °F - 60.8 °F 78% 30.13 in 10.0 mi Calm Calm - N/A   Clear
8:35 PM 66.2 °F - 60.8 °F 83% 30.12 in 10.0 mi Calm Calm - N/A   Clear
8:55 PM 66.2 °F - 60.8 °F 83% 30.12 in 10.0 mi Calm Calm - N/A   Clear
9:15 PM 64.4 °F - 60.8 °F 88% 30.13 in 10.0 mi Calm Calm - N/A   Clear
9:35 PM 64.4 °F - 60.8 °F 88% 30.15 in 10.0 mi Calm Calm - N/A   Clear
9:55 PM 64.4 °F - 60.8 °F 88% 30.16 in 10.0 mi Calm Calm - N/A   Clear
10:15 PM 62.6 °F - 60.8 °F 94% 30.16 in 10.0 mi Calm Calm - N/A   Clear
10:35 PM 62.6 °F - 60.8 °F 94% 30.16 in 10.0 mi Calm Calm - N/A   Clear
10:55 PM 62.6 °F - 60.8 °F 94% 30.16 in 10.0 mi Calm Calm - N/A   Scattered Clouds
11:15 PM 62.6 °F - 59.0 °F 88% 30.16 in 7.0 mi Calm Calm - N/A   Clear
11:35 PM 60.8 °F - 59.0 °F 94% 30.16 in 10.0 mi Calm Calm - N/A   Clear
11:55 PM 60.8 °F - 59.0 °F 94% 30.17 in 7.0 mi Calm Calm - N/A   Clear